VOZ9292 YBRM-YANG

Flight info

Callsign VOZ9292
Flight time 1h 7m
Altitude 32000
Route BRM Q38 LOTVI
Aircraft A320/M-SDE3FGHIRWY/LB1

Departure

Time 2026-05-06 10:28
Airport Broome International Airport (YBRM)

Arrival

Time 2026-05-06 11:35
Airport West Angelas Airport (YANG)
Time Latitude Longitude Altitude Speed Heading
2026-05-06 09:26 -17.95261 122.23333 37 ft 0 kts 62°
2026-05-06 10:15 -17.95270 122.23316 35 ft 3 kts 62°
2026-05-06 10:16 -17.95278 122.23299 36 ft 3 kts 59°
2026-05-06 10:16 -17.95293 122.23282 36 ft 3 kts 28°
2026-05-06 10:16 -17.95314 122.23273 36 ft 3 kts 14°
2026-05-06 10:16 -17.95319 122.23272 36 ft 0 kts 14°
2026-05-06 10:19 -17.95316 122.23273 36 ft 2 kts 14°
2026-05-06 10:19 -17.95297 122.23278 36 ft 4 kts 14°
2026-05-06 10:19 -17.95285 122.23281 34 ft 0 kts 14°
2026-05-06 10:20 -17.95283 122.23281 34 ft 1 kts 14°
2026-05-06 10:20 -17.95250 122.23290 35 ft 7 kts 14°
2026-05-06 10:20 -17.95196 122.23311 37 ft 9 kts 38°
2026-05-06 10:21 -17.95166 122.23360 37 ft 8 kts 42°
2026-05-06 10:21 -17.95135 122.23374 37 ft 0 kts 15°
2026-05-06 10:22 -17.95120 122.23378 36 ft 5 kts 15°
2026-05-06 10:23 -17.95080 122.23390 35 ft 5 kts 15°
2026-05-06 10:23 -17.95050 122.23389 35 ft 5 kts 324°
2026-05-06 10:23 -17.95044 122.23373 35 ft 0 kts 283°
2026-05-06 10:28 -17.94992 122.23164 37 ft 72 kts 286°
2026-05-06 10:28 -17.94786 122.22389 58 ft 144 kts 285°
2026-05-06 10:28 -17.94492 122.21298 592 ft 156 kts 285°
2026-05-06 10:28 -17.94183 122.20200 1415 ft 158 kts 291°
2026-05-06 10:29 -17.93597 122.19221 2010 ft 167 kts 325°
2026-05-06 10:29 -17.92467 122.18760 2260 ft 188 kts 357°
2026-05-06 10:29 -17.91092 122.18945 2533 ft 214 kts 22°
2026-05-06 10:29 -17.89872 122.19964 2884 ft 240 kts 53°
2026-05-06 10:30 -17.89014 122.21544 3317 ft 261 kts 63°
2026-05-06 10:30 -17.88522 122.23396 4006 ft 270 kts 89°
2026-05-06 10:30 -17.88899 122.25330 4700 ft 276 kts 115°
2026-05-06 10:30 -17.90052 122.26920 4935 ft 275 kts 142°
2026-05-06 10:31 -17.91755 122.27780 5001 ft 274 kts 169°
2026-05-06 10:31 -17.93645 122.27712 5005 ft 274 kts 197°
2026-05-06 10:31 -17.95356 122.26815 5253 ft 278 kts 212°
2026-05-06 10:31 -17.96977 122.25709 6116 ft 279 kts 213°
2026-05-06 10:32 -17.98601 122.24572 6913 ft 282 kts 213°
2026-05-06 10:32 -18.00228 122.23423 7688 ft 285 kts 214°
2026-05-06 10:32 -18.01875 122.22233 8463 ft 288 kts 215°
2026-05-06 10:32 -18.03522 122.21026 9236 ft 290 kts 215°
2026-05-06 10:33 -18.05166 122.19817 9977 ft 293 kts 215°
2026-05-06 10:33 -18.06869 122.18566 10389 ft 309 kts 216°
2026-05-06 10:33 -18.08697 122.17222 10533 ft 332 kts 216°
2026-05-06 10:33 -18.10655 122.15783 10655 ft 354 kts 216°
2026-05-06 10:34 -18.12719 122.14267 10935 ft 368 kts 216°
2026-05-06 10:34 -18.14829 122.12712 11508 ft 373 kts 216°
2026-05-06 10:34 -18.16961 122.11144 12145 ft 375 kts 216°
2026-05-06 10:34 -18.19119 122.09560 12763 ft 378 kts 216°
2026-05-06 10:35 -18.21286 122.07972 13382 ft 381 kts 216°
2026-05-06 10:35 -18.23473 122.06370 13970 ft 384 kts 216°
2026-05-06 10:35 -18.25669 122.04759 14530 ft 386 kts 217°
2026-05-06 10:35 -18.27877 122.03136 15097 ft 388 kts 217°
2026-05-06 10:36 -18.30098 122.01498 15648 ft 390 kts 217°
2026-05-06 10:36 -18.32328 121.99854 16214 ft 392 kts 217°
2026-05-06 10:36 -18.34568 121.98204 16784 ft 394 kts 218°
2026-05-06 10:36 -18.36798 121.96559 17355 ft 397 kts 218°
2026-05-06 10:37 -18.39063 121.94887 17927 ft 399 kts 218°
2026-05-06 10:37 -18.41342 121.93206 18455 ft 401 kts 218°
2026-05-06 10:37 -18.43636 121.91515 18931 ft 403 kts 219°
2026-05-06 10:37 -18.45939 121.89815 19415 ft 405 kts 219°
2026-05-06 10:38 -18.48253 121.88107 19892 ft 407 kts 219°
2026-05-06 10:38 -18.50577 121.86395 20359 ft 409 kts 219°
2026-05-06 10:38 -18.52916 121.84667 20808 ft 411 kts 219°
2026-05-06 10:38 -18.55258 121.82936 21243 ft 413 kts 220°
2026-05-06 10:39 -18.57608 121.81197 21657 ft 414 kts 220°
2026-05-06 10:39 -18.59977 121.79445 22061 ft 416 kts 220°
2026-05-06 10:39 -18.62355 121.77689 22459 ft 418 kts 220°
2026-05-06 10:39 -18.64740 121.75928 22836 ft 420 kts 220°
2026-05-06 10:40 -18.67136 121.74155 23221 ft 421 kts 220°
2026-05-06 10:40 -18.69538 121.72378 23579 ft 424 kts 220°
2026-05-06 10:40 -18.71952 121.70592 23886 ft 425 kts 220°
2026-05-06 10:40 -18.74380 121.68793 24190 ft 426 kts 221°
2026-05-06 10:41 -18.76817 121.67014 24492 ft 429 kts 218°
2026-05-06 10:41 -18.79497 121.65546 24796 ft 438 kts 208°
2026-05-06 10:41 -18.82419 121.64552 25130 ft 445 kts 202°
2026-05-06 10:41 -18.85406 121.63672 25439 ft 445 kts 202°
2026-05-06 10:42 -18.88393 121.62787 25742 ft 446 kts 203°
2026-05-06 10:42 -18.91381 121.61898 26092 ft 446 kts 203°
2026-05-06 10:42 -18.94329 121.61017 26517 ft 444 kts 203°
2026-05-06 10:42 -18.97294 121.60131 26940 ft 442 kts 203°
2026-05-06 10:43 -19.00248 121.59247 27366 ft 440 kts 204°
2026-05-06 10:43 -19.03187 121.58370 27796 ft 438 kts 204°
2026-05-06 10:43 -19.06119 121.57497 28231 ft 437 kts 204°
2026-05-06 10:44 -19.11946 121.55759 29148 ft 433 kts 204°
2026-05-06 10:44 -19.14841 121.54895 29605 ft 431 kts 205°
2026-05-06 10:44 -19.17719 121.54035 30058 ft 429 kts 205°
2026-05-06 10:44 -19.20591 121.53174 30452 ft 427 kts 205°
2026-05-06 10:45 -19.23444 121.52319 30844 ft 425 kts 205°
2026-05-06 10:45 -19.26280 121.51470 31258 ft 423 kts 205°
2026-05-06 10:45 -19.29105 121.50622 31683 ft 420 kts 206°
2026-05-06 10:45 -19.31915 121.49776 31905 ft 418 kts 206°
2026-05-06 10:46 -19.34726 121.48926 31957 ft 423 kts 206°
2026-05-06 10:46 -19.40430 121.47198 31957 ft 432 kts 206°
2026-05-06 10:47 -19.46238 121.45457 31962 ft 434 kts 205°
2026-05-06 10:47 -19.52053 121.43719 31964 ft 434 kts 205°
2026-05-06 10:48 -19.57873 121.41974 31967 ft 434 kts 206°
2026-05-06 10:48 -19.63691 121.40225 31965 ft 434 kts 205°
2026-05-06 10:49 -19.69503 121.38471 31968 ft 433 kts 207°
2026-05-06 10:49 -19.72207 121.37230 31967 ft 416 kts 220°
2026-05-06 10:49 -19.74560 121.35501 32000 ft 411 kts 223°
2026-05-06 10:50 -19.79206 121.31948 31979 ft 411 kts 223°
2026-05-06 10:50 -19.83843 121.28384 31971 ft 412 kts 223°
2026-05-06 10:51 -19.88466 121.24844 31970 ft 412 kts 223°
2026-05-06 10:51 -19.93121 121.21273 31964 ft 412 kts 223°
2026-05-06 10:52 -19.97774 121.17694 31969 ft 413 kts 223°
2026-05-06 10:52 -20.02485 121.14071 31969 ft 422 kts 223°
2026-05-06 10:53 -20.07272 121.10398 32004 ft 425 kts 223°
2026-05-06 10:53 -20.12079 121.06707 31972 ft 426 kts 223°
2026-05-06 10:54 -20.16883 121.03002 31972 ft 426 kts 223°
2026-05-06 10:54 -20.21685 120.99302 31976 ft 426 kts 223°
2026-05-06 10:55 -20.26488 120.95595 31972 ft 426 kts 223°
2026-05-06 10:55 -20.31289 120.91891 31967 ft 426 kts 223°
2026-05-06 10:56 -20.36096 120.88190 31975 ft 426 kts 223°
2026-05-06 10:56 -20.40893 120.84476 32006 ft 426 kts 223°
2026-05-06 10:57 -20.45691 120.80762 31996 ft 426 kts 223°
2026-05-06 10:57 -20.50490 120.77037 31996 ft 427 kts 223°
2026-05-06 10:58 -20.55300 120.73313 31996 ft 427 kts 223°
2026-05-06 10:58 -20.60108 120.69591 31996 ft 427 kts 223°
2026-05-06 10:59 -20.64911 120.65859 32001 ft 427 kts 223°
2026-05-06 10:59 -20.69714 120.62125 32003 ft 427 kts 223°
2026-05-06 11:00 -20.74523 120.58381 32001 ft 427 kts 223°
2026-05-06 11:00 -20.79293 120.54671 32032 ft 427 kts 223°
2026-05-06 11:01 -20.84106 120.50923 32027 ft 428 kts 222°
2026-05-06 11:01 -20.88921 120.47184 32032 ft 428 kts 222°
2026-05-06 11:02 -20.93730 120.43441 32030 ft 428 kts 223°
2026-05-06 11:02 -20.98529 120.39677 32025 ft 428 kts 223°
2026-05-06 11:03 -21.03339 120.35922 32038 ft 428 kts 222°
2026-05-06 11:03 -21.08150 120.32174 32040 ft 428 kts 222°
2026-05-06 11:04 -21.12956 120.28419 32040 ft 427 kts 222°
2026-05-06 11:04 -21.17752 120.24655 32044 ft 427 kts 222°
2026-05-06 11:05 -21.22552 120.20893 32042 ft 428 kts 222°
2026-05-06 11:05 -21.27352 120.17116 32036 ft 428 kts 222°
2026-05-06 11:06 -21.32150 120.13340 32054 ft 428 kts 222°
2026-05-06 11:06 -21.36957 120.09570 32051 ft 428 kts 222°
2026-05-06 11:07 -21.41766 120.05804 32054 ft 428 kts 222°
2026-05-06 11:07 -21.46570 120.02022 32074 ft 428 kts 222°
2026-05-06 11:08 -21.51379 119.98228 32072 ft 429 kts 222°
2026-05-06 11:08 -21.56163 119.94458 32070 ft 429 kts 222°
2026-05-06 11:09 -21.60973 119.90656 32069 ft 429 kts 222°
2026-05-06 11:09 -21.65790 119.86851 32065 ft 430 kts 222°
2026-05-06 11:10 -21.70607 119.83049 31917 ft 430 kts 222°
2026-05-06 11:10 -21.73005 119.81162 31468 ft 421 kts 221°
2026-05-06 11:10 -21.75323 119.79338 31377 ft 405 kts 222°
2026-05-06 11:10 -21.77556 119.77578 31288 ft 391 kts 222°
2026-05-06 11:11 -21.79727 119.75859 31209 ft 387 kts 222°
2026-05-06 11:11 -21.84104 119.72358 31055 ft 395 kts 222°
2026-05-06 11:11 -21.86318 119.70591 30927 ft 401 kts 222°
2026-05-06 11:12 -21.87824 119.69390 30775 ft 411 kts 222°
2026-05-06 11:12 -21.90163 119.67523 30552 ft 424 kts 221°
2026-05-06 11:12 -21.92552 119.65622 30314 ft 428 kts 221°
2026-05-06 11:12 -21.94956 119.63721 30074 ft 428 kts 221°
2026-05-06 11:13 -21.97363 119.61822 29794 ft 428 kts 221°
2026-05-06 11:13 -21.99763 119.59929 29520 ft 427 kts 221°
2026-05-06 11:13 -22.02162 119.58036 29249 ft 426 kts 221°
2026-05-06 11:13 -22.04547 119.56148 28981 ft 425 kts 221°
2026-05-06 11:14 -22.06892 119.54282 28728 ft 424 kts 221°
2026-05-06 11:14 -22.09261 119.52387 28468 ft 423 kts 221°
2026-05-06 11:14 -22.11620 119.50502 28234 ft 422 kts 220°
2026-05-06 11:14 -22.13977 119.48619 27975 ft 422 kts 220°
2026-05-06 11:15 -22.16345 119.46729 27715 ft 422 kts 220°
2026-05-06 11:15 -22.18697 119.44858 27235 ft 419 kts 220°
2026-05-06 11:15 -22.21037 119.42992 26608 ft 417 kts 220°
2026-05-06 11:15 -22.23365 119.41136 26006 ft 414 kts 219°
2026-05-06 11:16 -22.25675 119.39293 25414 ft 413 kts 219°
2026-05-06 11:16 -22.27979 119.37452 24829 ft 411 kts 219°
2026-05-06 11:16 -22.30273 119.35617 24258 ft 410 kts 219°
2026-05-06 11:16 -22.32560 119.33790 23698 ft 408 kts 218°
2026-05-06 11:17 -22.34842 119.31967 23039 ft 407 kts 218°
2026-05-06 11:17 -22.37110 119.30154 22382 ft 404 kts 218°
2026-05-06 11:17 -22.39362 119.28354 21748 ft 401 kts 218°
2026-05-06 11:17 -22.41598 119.26568 21122 ft 398 kts 218°
2026-05-06 11:18 -22.43821 119.24791 20506 ft 396 kts 218°
2026-05-06 11:18 -22.46026 119.23024 19910 ft 393 kts 218°
2026-05-06 11:18 -22.48213 119.21267 19320 ft 390 kts 218°
2026-05-06 11:18 -22.50352 119.19547 18748 ft 387 kts 218°
2026-05-06 11:19 -22.52507 119.17812 18161 ft 385 kts 218°
2026-05-06 11:19 -22.54646 119.16093 17508 ft 381 kts 218°
2026-05-06 11:19 -22.56770 119.14388 16872 ft 379 kts 218°
2026-05-06 11:19 -22.58875 119.12698 16252 ft 375 kts 218°
2026-05-06 11:20 -22.60966 119.11018 15644 ft 374 kts 217°
2026-05-06 11:20 -22.63046 119.09342 15052 ft 372 kts 217°
2026-05-06 11:20 -22.65116 119.07672 14466 ft 371 kts 217°
2026-05-06 11:20 -22.67183 119.06008 13881 ft 369 kts 217°
2026-05-06 11:21 -22.69243 119.04358 13294 ft 368 kts 217°
2026-05-06 11:21 -22.71265 119.02657 13098 ft 369 kts 224°
2026-05-06 11:21 -22.72959 119.00587 12797 ft 365 kts 230°
2026-05-06 11:21 -22.74564 118.98462 12208 ft 364 kts 231°
2026-05-06 11:22 -22.76165 118.96324 11606 ft 363 kts 231°
2026-05-06 11:22 -22.77747 118.94201 11054 ft 362 kts 231°
2026-05-06 11:22 -22.79318 118.92080 10493 ft 361 kts 231°
2026-05-06 11:22 -22.80813 118.89892 9975 ft 359 kts 236°
2026-05-06 11:23 -22.82174 118.87633 9415 ft 357 kts 237°
2026-05-06 11:23 -22.83510 118.85367 8849 ft 355 kts 237°
2026-05-06 11:23 -22.84826 118.83113 8336 ft 353 kts 237°
2026-05-06 11:23 -22.86164 118.80897 7992 ft 350 kts 232°
2026-05-06 11:24 -22.87616 118.78814 7923 ft 352 kts 231°
2026-05-06 11:24 -22.89114 118.76701 7938 ft 354 kts 231°
2026-05-06 11:24 -22.90615 118.74587 7940 ft 354 kts 231°
2026-05-06 11:24 -22.92118 118.72471 7940 ft 354 kts 231°
2026-05-06 11:25 -22.93621 118.70356 7944 ft 354 kts 231°
2026-05-06 11:25 -22.95109 118.68259 7947 ft 342 kts 231°
2026-05-06 11:25 -22.96517 118.66261 7944 ft 325 kts 231°
2026-05-06 11:25 -22.97854 118.64357 7947 ft 310 kts 231°
2026-05-06 11:26 -22.99130 118.62543 7946 ft 295 kts 231°
2026-05-06 11:26 -23.00346 118.60812 7947 ft 281 kts 231°
2026-05-06 11:26 -23.01509 118.59147 7948 ft 275 kts 231°
2026-05-06 11:26 -23.02662 118.57494 7948 ft 274 kts 231°
2026-05-06 11:27 -23.03815 118.55845 7946 ft 274 kts 231°
2026-05-06 11:27 -23.04971 118.54196 7941 ft 274 kts 231°
2026-05-06 11:27 -23.06126 118.52546 7912 ft 273 kts 231°
2026-05-06 11:27 -23.07274 118.50905 7622 ft 273 kts 231°
2026-05-06 11:28 -23.08414 118.49259 7312 ft 273 kts 231°
2026-05-06 11:28 -23.09545 118.47607 7012 ft 273 kts 231°
2026-05-06 11:28 -23.10671 118.45948 6730 ft 273 kts 231°
2026-05-06 11:28 -23.11797 118.44293 6431 ft 272 kts 229°
2026-05-06 11:29 -23.13172 118.42951 6177 ft 261 kts 204°
2026-05-06 11:29 -23.14814 118.42328 6050 ft 242 kts 181°
2026-05-06 11:29 -23.16430 118.42395 5883 ft 227 kts 161°
2026-05-06 11:29 -23.17846 118.43038 5573 ft 218 kts 141°
2026-05-06 11:30 -23.18927 118.44140 5371 ft 211 kts 123°
2026-05-06 11:30 -23.19794 118.45433 5301 ft 212 kts 123°
2026-05-06 11:30 -23.20662 118.46703 5230 ft 212 kts 123°
2026-05-06 11:30 -23.21551 118.47999 5153 ft 211 kts 123°
2026-05-06 11:31 -23.22426 118.49275 5073 ft 210 kts 123°
2026-05-06 11:31 -23.23196 118.50581 4969 ft 206 kts 109°
2026-05-06 11:31 -23.23465 118.52094 4942 ft 205 kts 88°
2026-05-06 11:31 -23.23151 118.53616 4951 ft 210 kts 66°
2026-05-06 11:32 -23.22440 118.55010 4955 ft 211 kts 63°
2026-05-06 11:32 -23.21719 118.56390 4952 ft 209 kts 63°
2026-05-06 11:32 -23.20997 118.57769 4859 ft 210 kts 63°
2026-05-06 11:32 -23.20280 118.59140 4700 ft 207 kts 63°
2026-05-06 11:33 -23.19582 118.60482 4490 ft 200 kts 64°
2026-05-06 11:33 -23.18908 118.61772 4187 ft 190 kts 64°
2026-05-06 11:33 -23.18278 118.62976 3928 ft 177 kts 65°
2026-05-06 11:33 -23.17692 118.64093 3662 ft 162 kts 65°
2026-05-06 11:34 -23.17165 118.65098 3443 ft 147 kts 66°
2026-05-06 11:34 -23.16668 118.66051 3225 ft 144 kts 65°
2026-05-06 11:34 -23.16178 118.66998 3017 ft 146 kts 65°
2026-05-06 11:34 -23.15704 118.67942 2818 ft 142 kts 66°
2026-05-06 11:35 -23.15202 118.68860 2625 ft 142 kts 60°
2026-05-06 11:35 -23.14578 118.69683 2420 ft 143 kts 47°
2026-05-06 11:35 -23.13885 118.70431 2300 ft 130 kts 47°
2026-05-06 11:35 -23.13556 118.70782 2298 ft 25 kts 38°
2026-05-06 11:36 -23.13530 118.70820 2302 ft 1 kts 180°
2026-05-06 11:36 -23.13582 118.70768 2298 ft 19 kts 227°
2026-05-06 11:36 -23.13675 118.70664 2300 ft 20 kts 227°
2026-05-06 11:36 -23.13729 118.70569 2299 ft 13 kts 282°
2026-05-06 11:37 -23.13701 118.70531 2296 ft 4 kts 311°
2026-05-06 11:37 -23.13693 118.70512 2303 ft 3 kts 287°
2026-05-06 11:37 -23.13692 118.70488 2300 ft 4 kts 265°
2026-05-06 11:37 -23.13688 118.70462 2299 ft 4 kts 310°
2026-05-06 11:38 -23.13667 118.70451 2301 ft 1 kts 337°
2026-05-06 11:38 -23.13664 118.70450 2302 ft 0 kts 337°